This is the latest recevied weather packets stored in our database for station/object OK2KJT-11. If no packets are shown the sender has not sent any weather packets the latest 10 day(s).
| Time | Temp. | Humidity | Pressure | Rain* | Wind** | Luminosity | Snow |
|---|---|---|---|---|---|---|---|
| 1788640694 | 13.89° C | 60% | 1022.6 hPa | - | - | - | - |
| 1788640094 | 13.89° C | 60% | 1022.6 hPa | - | - | - | - |
| 1788639494 | 13.89° C | 61% | 1022.6 hPa | - | - | - | - |
| 1788638894 | 13.89° C | 60% | 1022.7 hPa | - | - | - | - |
| 1788637695 | 14.44° C | 59% | 1022.6 hPa | - | - | - | - |
| 1788637103 | 14.44° C | 60% | 1022.5 hPa | - | - | - | - |
| 1788636503 | 14.44° C | 59% | 1022.4 hPa | - | - | - | - |
| 1788635896 | 14.44° C | 59% | 1022.5 hPa | - | - | - | - |
| 1788635295 | 15° C | 59% | 1022.5 hPa | - | - | - | - |
| 1788634703 | 15° C | 59% | 1022.3 hPa | - | - | - | - |
| 1788634096 | 15° C | 58% | 1022.2 hPa | - | - | - | - |
| 1788633504 | 14.44° C | 58% | 1022 hPa | - | - | - | - |
| 1788632897 | 15° C | 57% | 1022 hPa | - | - | - | - |
| 1788632297 | 15° C | 55% | 1021.8 hPa | - | - | - | - |
| 1788631698 | 15° C | 54% | 1021.8 hPa | - | - | - | - |
| 1788631098 | 15.56° C | 54% | 1021.7 hPa | - | - | - | - |
| 1788630496 | 15.56° C | 53% | 1021.5 hPa | - | - | - | - |
| 1788629897 | 15.56° C | 52% | 1021.4 hPa | - | - | - | - |
| 1788629298 | 15.56° C | 51% | 1021.4 hPa | - | - | - | - |
| 1788628699 | 15.56° C | 50% | 1021.3 hPa | - | - | - | - |
| 1788628099 | 16.11° C | 50% | 1021.1 hPa | - | - | - | - |
| 1788627499 | 16.11° C | 48% | 1021.2 hPa | - | - | - | - |
| 1788626900 | 16.67° C | 47% | 1021 hPa | - | - | - | - |
| 1788626300 | 17.22° C | 46% | 1020.9 hPa | - | - | - | - |
| 1788625700 | 18.33° C | 44% | 1020.8 hPa | - | - | - | - |
* Rain since midnight (hover to see other rain measurements)
** Current wind speed in m/s (hover to see current wind gust speed)